Flag for India Weather past 2 weeks in Sultanpur, Uttar Pradesh, India

Now
81 °F

Passing clouds.


Feels Like: 88 °F
Forecast: 80 / 95 °F
Wind: No wind

Location: Lucknow / Amausi

Current Time: Aug 3, 2015 at 6:25:37 AM

Latest Report: Aug 3, 2015 at 5:30 AM


Visibility: 2 mi

Pressure: 29.62 "Hg

Humidity: 94%

Dew point: 79 °F

Location of SultanpurLocation

Historic Weather in Sultanpur — Graph

°F

Sultanpur temperature yesterday

Maximum temperature yesterday: 95 °F (at 5:00 PM)
Minimum temperature yesterday: 79 °F (at 4:00 AM)
Average temperature yesterday: 86 °F

Past Weeks' High & Low Weather Summary

 TemperatureHumidityPressure
High97 °F (Jul 28, 5:30 PM)100% (Jul 24, 6:30 PM)29.71 "Hg (Jul 24, 6:30 PM)
Low79 °F (Jul 24, 3:30 PM)53% (Jul 28, 5:30 PM)29.39 "Hg (Jul 19, 4:30 PM)
Average87 °F78%29.56 "Hg
* Reported Jul 19 5:00 AM — Aug 3 5:00 AM, Sultanpur, Weather by CustomWeather, © 2015

Note: Actual official high and low records may vary slightly from our data, if they occured in-between our weather recording intervals... More about our weather records

Advertising

Sultanpur weather history for previous 24 hours

 ConditionsComfort  
Time TempWeatherWind HumidityBarometerVisibility
5:00 AM
Mon, Aug 3
81 °FPassing clouds.No wind94%29.59 "Hg1 mi
4:00 AM81 °FHaze.No wind94%29.59 "Hg1 mi
3:00 AM82 °FHaze.No wind89%29.59 "Hg1 mi
2:00 AM82 °FHaze.2 mph89%29.59 "Hg2 mi
1:00 AM82 °FPassing clouds.2 mph89%29.62 "Hg2 mi
12:00 AM82 °FPassing clouds.2 mph89%29.62 "Hg2 mi
9:00 PM
Sun, Aug 2
86 °FPassing clouds.No wind79%29.62 "Hg2 mi
8:30 PM86 °FPassing clouds.No wind79%29.62 "Hg2 mi
8:00 PM86 °FPartly cloudy.2 mph84%29.62 "Hg2 mi
7:30 PM86 °FPartly cloudy.3 mph84%29.62 "Hg3 mi
7:00 PM90 °FScattered clouds.3 mph75%29.62 "Hg3 mi
6:30 PM91 °FScattered clouds.6 mph67%29.62 "Hg3 mi
6:00 PM93 °FScattered clouds.N/A67%29.59 "Hg3 mi
5:00 PM95 °FScattered clouds.3 mph63%29.62 "Hg3 mi
4:00 PM93 °FScattered clouds.2 mph67%29.59 "Hg3 mi
3:30 PM93 °FBroken clouds.2 mph67%29.62 "Hg3 mi
3:00 PM91 °FScattered clouds.5 mph71%29.62 "Hg3 mi
2:30 PM90 °FBroken clouds.5 mph75%29.65 "Hg3 mi
2:00 PM90 °FBroken clouds.6 mph75%29.65 "Hg3 mi
1:30 PM90 °FBroken clouds.5 mph79%29.68 "Hg3 mi
12:30 PM91 °FBroken clouds.No wind71%29.68 "Hg3 mi
12:00 PM90 °FBroken clouds.No wind75%29.71 "Hg2 mi
11:00 AM90 °FBroken clouds.No wind75%29.71 "Hg2 mi
10:30 AM90 °FBroken clouds.No wind75%29.71 "Hg2 mi
10:00 AM88 °FBroken clouds.No wind79%29.71 "Hg2 mi
9:30 AM86 °FBroken clouds.No wind84%29.71 "Hg2 mi
9:00 AM86 °FBroken clouds.No wind84%29.71 "Hg2 mi
8:30 AM82 °FMore clouds than sun.No wind89%29.71 "Hg2 mi
8:00 AM82 °FMore clouds than sun.No wind89%29.71 "Hg2 mi
7:30 AM81 °FMore clouds than sun.No wind94%29.68 "Hg2 mi
7:00 AM81 °FMore clouds than sun.No wind94%29.68 "Hg2 mi
6:30 AM81 °FMore clouds than sun.No wind94%29.68 "Hg2 mi
6:00 AM81 °FPartly cloudy.No wind89%29.68 "Hg2 mi
Weather by CustomWeather, © 2015

See weather overviewHow to use our weather pages